Location: Recife
(8.0585°S, 34.8848°W)
Time: 20:52:42
(UTC-03:00)

Vanguard 2 Rocket - Pass Details

Date: 14 April 2026
Orbit: 553 x 3286 km, 32.9° (Epoch: 13 May)

Event Time Altitude Azimuth Distance (km) Brightness Sun altitude
Rises 17:30:32 0° 260° (W) 7,015 13.1 -4.0°
Reaches altitude 10° 17:37:11 10° 272° (W) 5,648 12.8 -5.6°
Maximum altitude 17:48:23 22° 316° (NW) 3,828 10.8 -8.3°
Drops below altitude 10° 17:56:27 10° 3° (N) 3,925 10.2 -10.3°
Sets 18:00:04 0° 19° (NNE) 4,493 10.3 -11.2°
